sat.trackr.live / text

‹ back to catalog

STARLINK-3643

NORAD 51992 · 2022-025AN

PAYLOAD ACTIVE UNKNOWN

§ Identity

Operator
Country
US
Launch date
2022-03-09
Launch site
AFETR
Launch vehicle
Mass (kg)
RCS (m²)

Purposes: comms

External: N2YO · Heavens-Above · Gunter

§ Orbital elements

Epoch: 2026-09-20T01:37:08.870592Z

Period
93.85 min
Inclination
53.1585°
Eccentricity
0.0001183
Mean motion
15.34388850 rev/d
Perigee alt
461.9 km
Apogee alt
463.5 km
Semi-major
6,840.9 km
B*
1.9910e-5
RAAN
211.6640°
Arg perigee
86.4227°
Mean anomaly
273.6911°
Rev number
25,045

§ Raw data

STARLINK-36431 51992U 22025AN  26263.06746378  .00000296  00000+0  19910-4 0  99972 51992  53.1585 211.6640 0001183  86.4227 273.6911 15.34388850250457

JSON: /api/v1/satellites/51992 · /tle

For live sub-satellite position, see the globe view (requires WebGL).

§ Visibility from observer

Set your observer location to see the next 7 days of passes ≥ 10°. The values pass through the URL so the page stays shareable.

No JS? Fill the form by hand. The geolocation button needs JavaScript.